Погода в Галбае

Россия / Республика Бурятия     51°47′22″N   102°32′21″E
темп.,
°C
ветер,
м/с
пор.,
м/с
влажн.,
%
обл.,
%
осадки,
мм/ч
давл.,
гПа
погр.,
м
16 мая, вс
вс1623:00+7юз01575 0.0 101814
02:00+5в016212 0.0 101812
05:00+4ююв016599 0.0 101710
08:00+8зсз115386 0.0 1015211
11:00+15ссв124253 0.0 1012479
14:00+17сз1342100 0.0 1011873
17:00+19ссз243735 0.0 10081574
20:00+14в3458100 0.0 1009127
17 мая, пн
пн1723:00+9вюв117618 0.0 100914
02:00+7ююв118163 0.0 100713
05:00+7вюв1175100 0.0 100516
08:00+10всв4674100 0.0 1007570
11:00+6в348597 0.7 1012413
14:00+8св1276100 0.8 1010585
17:00+11всв2267100 0.0 1008812
20:00+9всв3475100 0.0 1009289
18 мая, вт
вт1823:00+6всв3586100 0.0 1012340
02:00+5в2493100 0.8 1013481
05:00+4всв2394100 0.7 1012455
08:00+4в1295100 1.1 1013504
11:00+7ссв118196 0.1 1011592
14:00+10зюз016563 0.1 1008948
17:00+13всв2255100 0.0 10051023
20:00+10всв236791 0.0 100355
19 мая, ср
ср1923:00+7в0074100 0.0 100210
02:00+5всв0080100 0.0 99910
05:00+6св0177100 0.0 99713
08:00+10всв116599 0.0 997182
11:00+14всв3356100 0.2 997825
14:00+16св325523 0.4 9971099
17:00+17всв545282 0.1 9961073
20:00+12в5768100 0.2 998509
20 мая, чт
чт2023:00+8в358686 0.3 999359
02:00+8всв2486100 0.3 999346
05:00+6в2386100 0.0 999279
08:00+6всв3584100 0.0 1000417
11:00+5всв4685100 0.1 1001761
14:00+1вюв12100100 11.6 1003137
17:00+3всв1399100 3.0 1003397
20:00+2вюв1298100 6.2 1005301